MOLNIYA 1-91

Last updated on Tue Jun 27 2023 00:03:05 GMT+0000 (Coordinated Universal Time)

1 25485U 98054A 23176.85846793 .00000098 00000+0 00000+0 0 9994 2 25485 63.3353 92.0244 6791486 291.6991 11.8661 2.36444529187208
UTC large
Height (km)
Speed (km/s)
/
Latitude / Longitude
Inclination (degrees)
Orbital Period (minutes)
Azimuth
Elevation
Range (km)
Doppler Factor

Next 0 passes for location: London (51.5072 / 0.1276)

Sorry there are no passes over London.